Regional Weather Roundup
Issued by NWS

Home | Current Version | Previous Version | Text Only | Print | Product List | Glossary On
Versions: 1 2 3 4 5 6 7 8 9 10 11 12 13 14 15 16 17 18 19 20 21 22 23 24 25 26 27 28 29 30 31 32 33 34 35 36 37 38 39 40 41 42 43 44 45 46 47 48 49 50
000
ASUS43 KDTX 211410
RWRMI
MICHIGAN HOURLY REGIONAL WEATHER ROUNDUP
NATIONAL WEATHER SERVICE DETROIT/PONTIAC MI
1000 AM EDT TUE APR 21 2015

NOTE: "FAIR" INDICATES FEW OR NO CLOUDS BELOW 12,000 FEET WITH NO
SIGNIFICANT WEATHER AND/OR OBSTRUCTION TO VISIBILITY.

MIZ047>049-052>055-059>063-066>070-074>076-081>083-211500-
SOUTHEAST LOWER MICHIGAN

CITY           SKY/WX    TMP DP  RH WIND       PRES   REMARKS
ADRIAN         SUNNY     47  29  49 W24G33    29.60S
ALMA           CLOUDY    42  37  82 SW13G18   29.50S
ANN ARBOR      PTSUNNY   46  30  53 W25G37    29.56F
BAD AXE        CLOUDY    42  34  73 SW14      29.48F
CARO           CLOUDY    43  33  68 SW17G23   29.49S
DETROIT CITY   CLOUDY    46  32  58 SW25G31   29.56F
DETROIT        CLOUDY    49  33  54 SW23G35   29.58F
FLINT          CLOUDY    46  31  55 W16G31    29.53S
GROSSE ILE     PTSUNNY   48  30  49 SW22G31   29.57F
HILLSDALE      SUNNY     46  30  53 W15G29    29.58S
HOWELL         CLOUDY    42  32  67 SW18G29   29.53S

CITY           SKY/WX    TMP DP  RH WIND       PRES   REMARKS
JACKSON        CLOUDY    45  31  58 W21G37    29.55S
LAMBERTVILLE   SUNNY     50  32  50 W20G30    29.61F
LANSING        CLOUDY    42  30  62 W17G28    29.53F
LAPEER         CLOUDY    45  32  60 SW21G28   29.51F
MASON          CLOUDY    41  30  64 SW14G21   29.54S
MONROE         MOSUNNY   48  32  53 W23G40    29.59S
MT. CLEMENS    CLOUDY    46  35  65 SW15G26   29.53F
PONTIAC        PTSUNNY   43  30  60 SW16G26   29.53S
PORT HOPE        N/A     41  35  79 S7        29.45F
PORT HURON     DRIZZLE   45  32  61 SW8G20    29.54F
TRI CITIES     LGT RAIN  43  33  68 SW21      29.48F
TROY           CLOUDY    46  34  63 SW14G21   29.57S
SAGINAW HB     LGT RAIN  41  34  75 W17G23    29.49S
$$
MIZ043>046-050>051-056>058-064>065-071>073-077>080-211500-
SOUTHWEST LOWER MICHIGAN

CITY           SKY/WX    TMP DP  RH WIND       PRES   REMARKS
BATTLE CREEK   CLOUDY    43  30  60 W20G40    29.56S
BENTON HARBOR  CLOUDY    42  32  67 SW23G30   29.60S
BIG RAPIDS     LGT RAIN  38  35  89 SW13G20   29.45S WCI  30
COLDWATER      PTSUNNY   45  30  56 W22G31    29.59S
FREMONT        LGT RAIN  38  34  85 W12G21    29.49R WCI  30
HOLLAND        CLOUDY    43  33  68 SW22G31   29.55S
GRAND RAPIDS   CLOUDY    41  32  70 SW24G33   29.52F
IONIA          DRIZZLE   40  33  76 W25G31    29.51S WCI  30
KALAMAZOO      CLOUDY    43  29  57 W25G36    29.58R
LUDINGTON      CLOUDY    38  35  87 W16       29.46F WCI  29
MARSHALL       CLOUDY    44  31  60 MISG      29.56S
MOUNT PLEASANT PTSUNNY   40  35  81 SW15G21   29.47S WCI  32
MUSKEGON       CLOUDY    40  32  73 SW17G25   29.52R WCI  31
SOUTH HAVEN    CLOUDY    42  32  69 W14G24    29.58S
$$
MIZ016>042-211500-
NORTHERN LOWER MICHIGAN

CITY           SKY/WX    TMP DP  RH WIND       PRES   REMARKS
ALPENA         CLOUDY    41  32  70 SW12      29.41S
BEAVER ISLAND  CLOUDY    36  33  91 SW12G17   29.35S WCI  27
BELLAIRE       CLOUDY    39  35  87 SW9       29.40S WCI  32
CADILLAC       CLOUDY    37  34  89 W9G21     29.40S WCI  31
CHARLEVOIX     CLOUDY    38  36  94 W12G17    29.40S WCI  30
FRANKFORT      CLOUDY    40  32  73 SW9G17    29.42R WCI  34
GAYLORD        CLOUDY    37  34  89 SW15      29.36S WCI  28
GRAYLING       CLOUDY    38  32  76 SW14      29.39F WCI  30
HARBOR SPRINGS LGT RAIN  36  33  92 SW8       29.36F WCI  29
HOUGHTON LAKE  CLOUDY    39  33  79 SW18G28   29.41S WCI  30
MANISTEE       CLOUDY    37  30  75 W14G21    29.44S WCI  29
OSCODA         CLOUDY    42  35  76 SW10      29.43F
PELLSTON       LGT RAIN  38  33  82 SW9G18    29.36S WCI  31
ROGERS CITY    CLOUDY    40  35  83 SW9G17    29.39S WCI  33
TRAVERSE CITY  DRIZZLE   39  33  79 W9G17     29.39S WCI  33
$$
MIZ007>008-015-211500-
EASTERN UPPER MICHIGAN

CITY           SKY/WX    TMP DP  RH WIND       PRES   REMARKS
KINROSS        CLOUDY    37  34  87 S9G17     29.32F WCI  31
MACKINAC ISLAN FLURRIES  36  35  96 SW9G16    29.34S WCI  29
NEWBERRY       CLOUDY    36  33  90 SW15      29.29S WCI  26
S. S. MARIE    CLOUDY    38  32  79 SW13      29.32S WCI  30
MUNISING         N/A     38  33  82 SW8       29.28S WCI  32
$$
MIZ004>006-011>014-085-211500-
CENTRAL UPPER MICHIGAN

CITY           SKY/WX    TMP DP  RH WIND       PRES   REMARKS
MANISTIQUE     CLOUDY    37  35  91 SW9       29.31S WCI  31
ESCANABA       PTSUNNY   37  30  75 SW8G16    29.32S WCI  31
MENOMINEE      CLOUDY    39  28  65 W8G18     29.36S WCI  34
SAWYER-GWINN   CLOUDY    36  32  87 W13       29.27S WCI  27
$$
MIZ001>003-009>011-084-211500-
WESTERN UPPER MICHIGAN

CITY           SKY/WX    TMP DP  RH WIND       PRES   REMARKS
IRON MOUNTAIN  CLOUDY    37  30  75 W13       29.30S WCI  29
HOUGHTON       LGT SNOW  33  31  92 NW20      29.25R VSB 1   WCI  21
COPPER HARBOR    N/A     34  32  92 N15       29.24S WCI  24
IRONWOOD       CLOUDY    30  30 100 W18       29.31S WCI  18
$$

ABBREVIATIONS USED IN REMARKS
   TC - TEMPERATURE IN CELSIUS
  WCI - WIND CHILL INDEX
   HX - HEAT INDEX
  VSB - VISIBILITY



USA.gov is the U.S. government's official web portal to all federal, state and local government web resources and services.